Change the Weather History Date:

Monday, April 22, 2013

  Actual Average Record
Temperature  
Mean Temperature 62 °F -  
Max Temperature 76 °F 68 °F 92 °F (2009)
Min Temperature 49 °F 49 °F 46 °F (1998)
Degree Days  
Heating Degree Days 3    
Growing Degree Days 12 (Base 50)    
Moisture  
Dew Point 51 °F    
Average Humidity 63    
Maximum Humidity 76    
Minimum Humidity 48    
Precipitation  
Precipitation 0.00 in - - ()
Sea Level Pressure  
Sea Level Pressure 29.94 in    
Wind  
Wind Speed 12 mph (SE)    
Max Wind Speed 24 mph    
Max Gust Speed 32 mph    
Visibility 10 miles    
Events Thunderstorm    
Averages and records for this station are not official NWS values.
T = Trace of Precipitation, MM = Missing Value Source: NWS Daily Summary

Daily Weather History Graph

Daily Weather History Graph

Search for Another Location

Airport or City:

Trip Planner

Search our weather history database for the weather conditions in past years. The results will help you decide how hot, cold, wet, or windy it might be!

Date:

Astronomy

Apr. 22, 2013 Rise Set
Actual Time 6:47 AM CDT 8:08 PM CDT
Civil Twilight 6:21 AM CDT 8:35 PM CDT
Nautical Twilight 5:49 AM CDT 9:07 PM CDT
Astronomical Twilight 5:16 AM CDT 9:40 PM CDT
Moon 5:04 PM CDT (4/22) 4:36 AM CDT (4/22)
Length of Visible Light 14h 13m
Length of Day
13h 20m
Waxing Gibbous, 88% of the Moon is Illuminated
Apr 22
Waxing Gibbous
Apr 25
Full
May 2
Last Quarter
May 9
New
May 17
First Quarter

Hourly Weather History & Observations

Time (CDT) Temp. Dew Point Humidity Pressure Visibility Wind Dir Wind Speed Gust Speed Precip Events Conditions
12:58 AM 57.0 °F 43.7 °F 61% 30.10 in 10.0 mi SE 9.2 mph - N/A   Clear
1:58 AM 55.9 °F 43.5 °F 63% 30.09 in 10.0 mi SSE 9.2 mph - N/A   Clear
2:58 AM 54.3 °F 44.1 °F 68% 30.07 in 10.0 mi SSE 8.1 mph - N/A   Clear
3:58 AM 52.2 °F 43.3 °F 72% 30.06 in 10.0 mi SE 6.9 mph - N/A   Clear
4:58 AM 51.8 °F 42.8 °F 71% 30.05 in 10.0 mi SE 8.1 mph - N/A   Clear
5:55 AM 50.7 °F 42.6 °F 74% 30.04 in 10.0 mi SE 6.9 mph - N/A   Clear
5:58 AM 50.7 °F 42.6 °F 74% 30.06 in 10.0 mi SE 8.1 mph - N/A   Clear
6:58 AM 49.8 °F 42.6 °F 76% 30.06 in 10.0 mi SE 9.2 mph - N/A   Clear
7:58 AM 51.6 °F 42.8 °F 72% 30.05 in 10.0 mi SE 10.4 mph - N/A   Clear
8:58 AM 57.7 °F 44.1 °F 60% 30.04 in 10.0 mi South 16.1 mph 20.7 mph N/A   Mostly Cloudy
9:58 AM 62.1 °F 48.2 °F 60% 30.01 in 10.0 mi South 23.0 mph 32.2 mph N/A   Partly Cloudy
10:58 AM 65.8 °F 49.5 °F 55% 30.01 in 10.0 mi South 21.9 mph 27.6 mph N/A   Partly Cloudy
11:58 AM 68.7 °F 51.3 °F 54% 29.97 in 10.0 mi South 23.0 mph - N/A   Clear
12:58 PM 71.2 °F 53.2 °F 53% 29.93 in 10.0 mi South 23.0 mph 31.1 mph N/A   Partly Cloudy
1:58 PM 72.9 °F 54.0 °F 51% 29.90 in 10.0 mi South 20.7 mph 28.8 mph N/A   Partly Cloudy
2:58 PM 73.9 °F 54.5 °F 51% 29.88 in 10.0 mi South 21.9 mph 29.9 mph N/A   Scattered Clouds
3:58 PM 75.4 °F 54.3 °F 48% 29.84 in 10.0 mi South 24.2 mph 32.2 mph N/A   Clear
4:58 PM 73.6 °F 54.3 °F 51% 29.83 in 10.0 mi South 17.3 mph 26.5 mph N/A   Partly Cloudy
5:58 PM 74.5 °F 55.4 °F 51% 29.83 in 10.0 mi South 18.4 mph 26.5 mph N/A   Partly Cloudy
6:58 PM 73.4 °F 55.2 °F 53% 29.83 in 10.0 mi South 13.8 mph - N/A   Clear
7:58 PM 70.7 °F 54.9 °F 57% 29.81 in 10.0 mi SSE 10.4 mph 20.7 mph N/A   Clear
8:58 PM 69.3 °F 55.9 °F 62% 29.82 in 10.0 mi SE 9.2 mph - N/A   Clear
9:58 PM 67.6 °F 56.1 °F 67% 29.83 in 10.0 mi SE 13.8 mph 20.7 mph N/A   Clear
10:58 PM 66.9 °F 56.7 °F 70% 29.86 in 10.0 mi East 13.8 mph - N/A   Partly Cloudy
11:23 PM 66.2 °F 57.2 °F 73% 29.87 in 10.0 mi East 12.7 mph - N/A Thunderstorm Thunderstorm
11:38 PM 66.2 °F 57.2 °F 73% 29.85 in 10.0 mi East 11.5 mph 24.2 mph N/A   Partly Cloudy
11:43 PM 66.2 °F 57.2 °F 73% 29.85 in 10.0 mi ENE 15.0 mph 18.4 mph N/A   Light Drizzle
11:57 PM 66.2 °F 57.2 °F 73% 29.88 in 10.0 mi ENE 8.1 mph 23.0 mph N/A Thunderstorm Partly Cloudy
11:58 PM 65.7 °F 57.0 °F 74% 29.88 in 10.0 mi ENE 8.1 mph 23.0 mph 0.00 in Thunderstorm Partly Cloudy